Location: *
(49.5667°N, 1.3667°W)
Time: 14:30:31
(UTC+00:00)

Cosmos 2297 Rocket - Pass Details

Date: 20 September 2019
Orbit: 841 x 842 km, 71.0° (Epoch: 14 October)

Event Time Altitude Azimuth Distance (km) Brightness Sun altitude
Rises 18:42:54 0° 162° (SSE) 3,386 5.1 -6.4°
Reaches altitude 10° 18:45:54 10° 147° (SSE) 2,456 4.2 -6.8°
Maximum altitude 18:49:56 21° 100° (E) 1,831 3.3 -7.5°
Drops below altitude 10° 18:53:59 10° 55° (NE) 2,469 4.2 -8.1°
Sets 18:57:00 0° 39° (NE) 3,409 5.1 -8.6°
